| time (UTC) | temp F | wind direction | speed MPH | gust MPH | rain 1hr in | rain 24hr in | rain mn in | humidity % | barometer mb |
| 20260902124113 | 77 | 45 | 3.0 | 4.0 | 0.00 | 0.00 | 0.00 | 44 | 1019.6 |
| 20260902123113 | 77 | 315 | 2.0 | 4.0 | 0.00 | 0.00 | 0.00 | 45 | 1019.6 |
| 20260902122113 | 76 | 225 | 2.0 | 2.0 | 0.00 | 0.00 | 0.00 | 47 | 1019.6 |
| 20260902121114 | 76 | 90 | 1.0 | 0.0 | 0.00 | 0.00 | 0.00 | 48 | 1019.6 |
| 20260902120113 | 76 | 247 | 1.0 | 4.0 | 0.00 | 0.00 | 0.00 | 48 | 1019.6 |
| 20260902115113 | 76 | 247 | 1.0 | 2.0 | 0.00 | 0.00 | 0.00 | 50 | 1019.6 |
| 20260902114114 | 75 | 315 | 1.0 | 1.0 | 0.00 | 0.00 | 0.00 | 52 | 1019.3 |
| 20260902113114 | 75 | 360 | 1.0 | 0.0 | 0.00 | 0.00 | 0.00 | 53 | 1019.3 |
| 20260902112113 | 75 | 135 | 2.0 | 4.0 | 0.00 | 0.00 | 0.00 | 54 | 1020.1 |
| 20260902111112 | 74 | 247 | 2.0 | 2.0 | 0.00 | 0.00 | 0.00 | 56 | 1020.1 |
| 20260902110112 | 74 | 90 | 1.0 | 2.0 | 0.00 | 0.00 | 0.00 | 56 | 1020.4 |
| 20260902105112 | 73 | 67 | 1.0 | 0.0 | 0.00 | 0.00 | 0.00 | 56 | 1020.4 |
| 20260902104112 | 72 | 135 | 1.0 | 4.0 | 0.00 | 0.00 | 0.00 | 56 | 1020.6 |
| 20260902103112 | 71 | 90 | 1.0 | 1.0 | 0.00 | 0.00 | 0.00 | 59 | 1020.6 |
| 20260902102112 | 71 | 135 | 1.0 | 1.0 | 0.00 | 0.00 | 0.00 | 58 | 1021.0 |
| 20260902101112 | 70 | 225 | 0.0 | 0.0 | 0.00 | 0.00 | 0.00 | 60 | 1021.0 |
| 20260902100112 | 70 | 202 | 0.0 | 1.0 | 0.00 | 0.00 | 0.00 | 61 | 1021.0 |
| 20260902095112 | 70 | 270 | 1.0 | 0.0 | 0.00 | 0.00 | 0.00 | 63 | 1021.0 |
| 20260902092112 | 67 | 225 | 1.0 | 0.0 | 0.00 | 0.00 | 0.00 | 65 | 1021.2 |
| 20260902091112 | 67 | 247 | 0.0 | 2.0 | 0.00 | 0.00 | 0.00 | 64 | 1021.2 |
| 20260902084111 | 65 | 225 | 1.0 | 2.0 | 0.00 | 0.00 | 0.00 | 68 | 1021.6 |
| 20260902083111 | 64 | 247 | 1.0 | 2.0 | 0.00 | 0.00 | 0.00 | 69 | 1021.6 |
| 20260902082111 | 64 | 202 | 0.0 | 0.0 | 0.00 | 0.00 | 0.00 | 69 | 1020.9 |
| 20260902081113 | 63 | 360 | 1.0 | 1.0 | 0.00 | 0.00 | 0.00 | 70 | 1020.9 |
| 20260902080111 | 63 | 90 | 1.0 | 1.0 | 0.00 | 0.00 | 0.00 | 71 | 1021.6 |
| 20260902075111 | 62 | 67 | 1.0 | 2.0 | 0.00 | 0.00 | 0.00 | 70 | 1021.6 |
| 20260902074111 | 61 | 180 | 1.0 | 2.0 | 0.00 | 0.00 | 0.00 | 72 | 1021.7 |
| 20260902073111 | 61 | 157 | 1.0 | 0.0 | 0.00 | 0.00 | 0.00 | 73 | 1021.7 |
| 20260902072112 | 60 | 112 | 0.0 | 1.0 | 0.00 | 0.00 | 0.00 | 73 | 1021.8 |
| 20260902071112 | 59 | 135 | 0.0 | 0.0 | 0.00 | 0.00 | 0.00 | 73 | 1021.8 |
| 20260902070110 | 59 | 202 | 0.0 | 0.0 | 0.00 | 0.00 | 0.00 | 73 | 1021.1 |
| 20260902065110 | 58 | 135 | 0.0 | 0.0 | 0.00 | 0.00 | 0.00 | 74 | 1021.1 |
| 20260902064110 | 58 | 180 | 0.0 | 0.0 | 0.00 | 0.00 | 0.00 | 74 | 1022.0 |
| 20260902063110 | 57 | 157 | 0.0 | 0.0 | 0.00 | 0.00 | 0.00 | 74 | 1022.0 |
| 20260902062112 | 57 | 67 | 0.0 | 0.0 | 0.00 | 0.00 | 0.00 | 75 | 1022.0 |
| 20260902061110 | 56 | 90 | 0.0 | 0.0 | 0.00 | 0.00 | 0.00 | 77 | 1022.0 |
| 20260902060110 | 54 | 67 | 0.0 | 0.0 | 0.00 | 0.00 | 0.00 | 77 | 1021.3 |
| 20260902054110 | 53 | 157 | 0.0 | 0.0 | 0.00 | 0.00 | 0.00 | 76 | 1021.9 |
| 20260902053110 | 53 | 90 | 0.0 | 0.0 | 0.00 | 0.00 | 0.00 | 75 | 1021.9 |
| 20260902052110 | 53 | 67 | 0.0 | 2.0 | 0.00 | 0.00 | 0.00 | 76 | 1021.8 |
| 20260902051110 | 52 | 202 | 0.0 | 0.0 | 0.00 | 0.00 | 0.00 | 75 | 1021.8 |
| 20260902050110 | 53 | 157 | 0.0 | 0.0 | 0.00 | 0.00 | 0.00 | 75 | 1021.6 |
| 20260902045110 | 53 | 90 | 0.0 | 0.0 | 0.00 | 0.00 | 0.00 | 75 | 1021.6 |
| 20260902044110 | 53 | 360 | 0.0 | 0.0 | 0.00 | 0.00 | 0.00 | 75 | 1021.5 |
| 20260902042110 | 53 | 112 | 0.0 | 0.0 | 0.00 | 0.00 | 0.00 | 75 | 1021.6 |
| 20260902040110 | 53 | 112 | 0.0 | 0.0 | 0.00 | 0.00 | 0.00 | 74 | 1021.6 |
| 20260902035110 | 54 | 67 | 0.0 | 0.0 | 0.00 | 0.00 | 0.00 | 74 | 1021.6 |
| 20260902033111 | 54 | 90 | 0.0 | 2.0 | 0.00 | 0.00 | 0.00 | 74 | 1021.6 |
| 20260902030111 | 55 | 90 | 0.0 | 0.0 | 0.00 | 0.00 | 0.00 | 74 | 1021.2 |
| 20260902025112 | 55 | 135 | 0.0 | 0.0 | 0.00 | 0.00 | 0.00 | 74 | 1021.2 |
| 20260902024111 | 56 | 90 | 0.0 | 0.0 | 0.00 | 0.00 | 0.00 | 74 | 1021.6 |
| 20260902023111 | 56 | 337 | 0.0 | 0.0 | 0.00 | 0.00 | 0.00 | 74 | 1021.6 |
| 20260902022111 | 56 | 247 | 0.0 | 0.0 | 0.00 | 0.00 | 0.00 | 74 | 1021.8 |
| 20260902021110 | 56 | 157 | 0.0 | 0.0 | 0.00 | 0.00 | 0.00 | 73 | 1021.8 |
| 20260902020111 | 56 | 112 | 0.0 | 0.0 | 0.00 | 0.00 | 0.00 | 73 | 1021.7 |
| 20260902015110 | 56 | 202 | 1.0 | 0.0 | 0.00 | 0.00 | 0.00 | 73 | 1021.7 |
| 20260902014110 | 56 | 67 | 0.0 | 2.0 | 0.00 | 0.00 | 0.00 | 73 | 1021.7 |
| 20260902013110 | 56 | 157 | 0.0 | 0.0 | 0.00 | 0.00 | 0.00 | 73 | 1021.7 |
| 20260902012110 | 56 | 135 | 0.0 | 0.0 | 0.00 | 0.00 | 0.00 | 72 | 1022.0 |
| 20260902005110 | 57 | 135 | 0.0 | 0.0 | 0.00 | 0.00 | 0.00 | 72 | 1021.7 |
| 20260902004110 | 57 | 180 | 0.0 | 0.0 | 0.00 | 0.00 | 0.00 | 72 | 1021.2 |
| 20260902003110 | 57 | 67 | 0.0 | 0.0 | 0.00 | 0.00 | 0.00 | 72 | 1021.2 |
| 20260902002110 | 58 | 157 | 0.0 | 0.0 | 0.00 | 0.00 | 0.00 | 70 | 1021.8 |
| 20260902001110 | 58 | 135 | 0.0 | 0.0 | 0.00 | 0.00 | 0.00 | 71 | 1021.8 |
| 20260902000110 | 58 | 157 | 0.0 | 0.0 | 0.00 | 0.00 | 0.00 | 70 | 1021.7 |
| 20260901235110 | 58 | 135 | 0.0 | 0.0 | 0.00 | 0.00 | 0.00 | 71 | 1021.7 |
| 20260901234110 | 59 | 135 | 0.0 | 0.0 | 0.00 | 0.00 | 0.00 | 70 | 1021.6 |
| 20260901232109 | 60 | 90 | 0.0 | 1.0 | 0.00 | 0.00 | 0.00 | 69 | 1021.7 |
| 20260901231109 | 60 | 112 | 0.0 | 0.0 | 0.00 | 0.00 | 0.00 | 69 | 1021.7 |
| 20260901230109 | 60 | 112 | 0.0 | 0.0 | 0.00 | 0.00 | 0.00 | 68 | 1021.6 |
| 20260901225109 | 61 | 157 | 0.0 | 0.0 | 0.00 | 0.00 | 0.00 | 68 | 1021.6 |
| 20260901224110 | 61 | 157 | 0.0 | 0.0 | 0.00 | 0.00 | 0.00 | 68 | 1021.6 |
| 20260901223109 | 61 | 315 | 0.0 | 0.0 | 0.00 | 0.00 | 0.00 | 68 | 1021.6 |
| 20260901222109 | 62 | 202 | 0.0 | 0.0 | 0.00 | 0.00 | 0.00 | 67 | 1021.2 |
| 20260901220112 | 62 | 360 | 1.0 | 0.0 | 0.00 | 0.00 | 0.00 | 67 | 1021.5 |
| 20260901215111 | 63 | 67 | 0.0 | 0.0 | 0.00 | 0.00 | 0.00 | 66 | 1021.5 |
| 20260901214111 | 63 | 180 | 0.0 | 0.0 | 0.00 | 0.00 | 0.00 | 65 | 1021.1 |
| 20260901213111 | 63 | 337 | 0.0 | 0.0 | 0.00 | 0.00 | 0.00 | 65 | 1021.1 |
| 20260901211111 | 64 | 90 | 2.0 | 3.0 | 0.00 | 0.00 | 0.00 | 65 | 1021.6 |
| 20260901210115 | 64 | 225 | 0.0 | 1.0 | 0.00 | 0.00 | 0.00 | 64 | 1020.9 |
| 20260901204115 | 65 | 67 | 0.0 | 0.0 | 0.00 | 0.00 | 0.00 | 63 | 1021.4 |
| 20260901203115 | 65 | 180 | 0.0 | 0.0 | 0.00 | 0.00 | 0.00 | 62 | 1021.4 |
| 20260901202115 | 66 | 135 | 0.0 | 0.0 | 0.00 | 0.00 | 0.00 | 60 | 1021.7 |
| 20260901201115 | 66 | 157 | 1.0 | 0.0 | 0.00 | 0.00 | 0.00 | 60 | 1021.7 |
| 20260901200115 | 67 | 112 | 1.0 | 2.0 | 0.00 | 0.00 | 0.00 | 58 | 1021.4 |
| 20260901195115 | 67 | 157 | 2.0 | 1.0 | 0.00 | 0.00 | 0.00 | 57 | 1021.4 |
| 20260901194115 | 67 | 135 | 1.0 | 0.0 | 0.00 | 0.00 | 0.00 | 57 | 1021.1 |
| 20260901193115 | 68 | 135 | 1.0 | 2.0 | 0.00 | 0.00 | 0.00 | 55 | 1021.1 |
| 20260901192116 | 68 | 135 | 0.0 | 1.0 | 0.00 | 0.00 | 0.00 | 52 | 1020.4 |
| 20260901191114 | 68 | 202 | 0.0 | 0.0 | 0.00 | 0.00 | 0.00 | 51 | 1020.4 |
| 20260901190114 | 68 | 270 | 1.0 | 0.0 | 0.00 | 0.00 | 0.00 | 50 | 1020.2 |
| 20260901184115 | 69 | 315 | 2.0 | 3.0 | 0.00 | 0.00 | 0.00 | 49 | 1020.6 |
| 20260901182114 | 69 | 247 | 2.0 | 3.0 | 0.00 | 0.00 | 0.00 | 48 | 1020.4 |
| 20260901181114 | 69 | 337 | 2.0 | 2.0 | 0.00 | 0.00 | 0.00 | 47 | 1020.4 |
| 20260901180114 | 69 | 360 | 2.0 | 2.0 | 0.00 | 0.00 | 0.00 | 47 | 1020.3 |
| 20260901175115 | 70 | 315 | 2.0 | 2.0 | 0.00 | 0.00 | 0.00 | 47 | 1020.3 |
| 20260901174113 | 70 | 45 | 2.0 | 1.0 | 0.00 | 0.00 | 0.00 | 47 | 1020.2 |
| 20260901173113 | 70 | 45 | 2.0 | 3.0 | 0.00 | 0.00 | 0.00 | 47 | 1020.2 |
| 20260901172113 | 71 | 315 | 2.0 | 4.0 | 0.00 | 0.00 | 0.00 | 47 | 1020.1 |
| 20260901171113 | 71 | 292 | 3.0 | 4.0 | 0.00 | 0.00 | 0.00 | 46 | 1020.1 |
| 20260901170113 | 71 | 202 | 4.0 | 7.0 | 0.00 | 0.00 | 0.00 | 46 | 1019.9 |
| 20260901165113 | 71 | 360 | 4.0 | 5.0 | 0.00 | 0.00 | 0.00 | 46 | 1019.9 |
| 20260901164114 | 72 | 315 | 3.0 | 7.0 | 0.00 | 0.00 | 0.00 | 45 | 1020.0 |
| 20260901163113 | 72 | 337 | 3.0 | 4.0 | 0.00 | 0.00 | 0.00 | 45 | 1020.0 |
| 20260901162112 | 72 | 225 | 3.0 | 7.0 | 0.00 | 0.00 | 0.00 | 45 | 1020.0 |
| 20260901161112 | 72 | 292 | 3.0 | 2.0 | 0.00 | 0.00 | 0.00 | 46 | 1020.0 |
| 20260901155112 | 73 | 315 | 3.0 | 4.0 | 0.00 | 0.00 | 0.00 | 45 | 1019.7 |
| 20260901154112 | 73 | 292 | 3.0 | 3.0 | 0.00 | 0.00 | 0.00 | 45 | 1020.4 |
| 20260901153112 | 73 | 292 | 3.0 | 8.0 | 0.00 | 0.00 | 0.00 | 44 | 1020.4 |
| 20260901151112 | 74 | 315 | 3.0 | 5.0 | 0.00 | 0.00 | 0.00 | 44 | 1020.1 |
| 20260901150112 | 75 | 292 | 2.0 | 3.0 | 0.00 | 0.00 | 0.00 | 44 | 1019.7 |
| 20260901144112 | 75 | 270 | 2.0 | 3.0 | 0.00 | 0.00 | 0.00 | 42 | 1020.0 |
| 20260901143112 | 74 | 337 | 2.0 | 5.0 | 0.00 | 0.00 | 0.00 | 42 | 1020.0 |
| 20260901142112 | 74 | 315 | 3.0 | 4.0 | 0.00 | 0.00 | 0.00 | 43 | 1019.9 |
| 20260901141112 | 74 | 360 | 3.0 | 2.0 | 0.00 | 0.00 | 0.00 | 42 | 1019.9 |
| 20260901140111 | 75 | 292 | 3.0 | 3.0 | 0.00 | 0.00 | 0.00 | 42 | 1020.0 |
| 20260901135111 | 75 | 270 | 3.0 | 4.0 | 0.00 | 0.00 | 0.00 | 42 | 1020.0 |
| 20260901134111 | 75 | 337 | 3.0 | 5.0 | 0.00 | 0.00 | 0.00 | 42 | 1020.2 |
| 20260901133111 | 75 | 292 | 3.0 | 2.0 | 0.00 | 0.00 | 0.00 | 42 | 1020.2 |
| 20260901132111 | 75 | 360 | 2.0 | 4.0 | 0.00 | 0.00 | 0.00 | 41 | 1020.3 |
| 20260901131111 | 74 | 45 | 3.0 | 3.0 | 0.00 | 0.00 | 0.00 | 43 | 1020.3 |
| 20260901130111 | 74 | 202 | 2.0 | 0.0 | 0.00 | 0.00 | 0.00 | 42 | 1020.3 |
| 20260901125111 | 74 | 67 | 3.0 | 3.0 | 0.00 | 0.00 | 0.00 | 42 | 1020.3 |